sat.trackr.live / text

‹ back to catalog

STARLINK-31533

NORAD 59505 · 2024-071X

PAYLOAD ACTIVE UNKNOWN

§ Identity

Operator
Country
US
Launch date
2024-04-13
Launch site
AFETR
Launch vehicle
Mass (kg)
RCS (m²)

Purposes: comms

External: N2YO · Heavens-Above · Gunter

§ Orbital elements

Epoch: 2026-05-24T16:39:04.204224Z

Period
94.27 min
Inclination
43.0007°
Eccentricity
0.0001193
Mean motion
15.27574382 rev/d
Perigee alt
482.2 km
Apogee alt
483.9 km
Semi-major
6,861.2 km
B*
1.4135e-5
RAAN
271.0142°
Arg perigee
266.4790°
Mean anomaly
93.5925°
Rev number
11,982

§ Raw data

STARLINK-315331 59505U 24071X   26144.69379866  .00000127  00000+0  14135-4 0  99962 59505  43.0007 271.0142 0001193 266.4790  93.5925 15.27574382119823

JSON: /api/v1/satellites/59505 · /tle

For live sub-satellite position, see the globe view (requires WebGL).

§ Visibility from observer

Set your observer location to see the next 7 days of passes ≥ 10°. The values pass through the URL so the page stays shareable.

No JS? Fill the form by hand. The geolocation button needs JavaScript.